{"data":{"norad_id":53470,"intl_designator":"2022-099F","name":"STARLINK-4393","alt_names":[],"object_type":"PAYLOAD","status":"ACTIVE","operator":null,"country":"US","launch_date":"2022-08-12","launch_site_code":"AFWTR","launch_vehicle":null,"mission":null,"orbit_class":"UNKNOWN","rcs_meters":null,"size_class":null,"mass_kg":null,"dimensions":null,"purposes":["comms"],"wikipedia_slug":null,"has_3d_model":false,"image_url":null,"decayed_at":null,"tle_current":{"epoch":"2026-09-21T00:00:02.000160Z","epoch_age_seconds":35352,"freshness":"FRESH","line1":"1 53470U 22099F   26264.00002315 -.00014239  00000+0 -65597-3 0  9997","line2":"2 53470  97.2846  17.8653 0002815  93.7120  80.0607 15.20202866  5801","mean_motion":15.20202866,"eccentricity":0.0002815,"inclination_deg":97.2846,"raan_deg":17.8653,"arg_perigee_deg":93.712,"mean_anomaly_deg":80.0607,"bstar":-0.00065597,"rev_number":580,"period_min":94.724199789793,"perigee_km":503.29050359598,"apogee_km":507.1658381872,"semimajor_km":6883.3651708916,"source":"CELESTRAK","updated_at":"2026-09-21T09:00:32.886931Z"}}}